KB9QJM Weather Reports


time (UTC)temp
F
wind
direction
speed
knots
gust
knots
rain 1hr
in
rain 24hr
in
rain mn
in
humidity
%
barometer
mb
20260504044600 58 194 8.7 12.2 0.00 0.00 0.00 61 1011.2
20260504043053 58 183 8.7 13.9 0.00 0.00 0.00 61 1011.5
20260504041601 58 176 9.6 13.0 0.00 0.00 0.00 61 1011.5
20260504040057 59 181 7.0 11.3 0.00 0.00 0.00 59 1011.7
20260504034553 59 178 6.1 12.2 0.00 0.00 0.00 59 1011.9
20260504033054 59 184 7.8 14.8 0.00 0.00 0.00 58 1011.9
20260504031550 60 170 9.6 13.9 0.00 0.00 0.00 57 1011.8
20260504030053 60 173 9.6 14.8 0.00 0.00 0.00 57 1012.0
20260504024602 60 177 8.7 13.9 0.00 0.00 0.00 57 1012.1
20260504023053 60 183 8.7 14.8 0.00 0.00 0.00 57 1012.2
20260504021554 61 173 11.3 15.6 0.00 0.00 0.00 55 1011.9
20260504020047 61 169 10.4 15.6 0.00 0.00 0.00 55 1011.7
20260504014551 61 174 9.6 13.9 0.00 0.00 0.00 55 1011.8
20260504013054 61 168 9.6 15.6 0.00 0.00 0.00 55 1011.9
20260504011549 62 173 9.6 14.8 0.00 0.00 0.00 54 1011.9
20260504010049 62 172 9.6 15.6 0.00 0.00 0.00 52 1012.0
20260504004548 63 180 9.6 13.9 0.00 0.00 0.00 52 1012.1
20260504003051 63 154 9.6 15.6 0.00 0.00 0.00 50 1012.3
20260504001546 63 167 8.7 16.5 0.00 0.00 0.00 49 1012.8
20260504000111 63 178 10.4 17.4 0.00 0.00 0.00 49 1012.8
20260503234556 64 184 6.1 13.9 0.00 0.00 0.00 50 1013.1
20260503233045 64 224 10.4 20.0 0.00 0.00 0.00 48 1012.9
20260503231546 64 190 9.6 19.1 0.00 0.00 0.00 49 1012.8
20260503230050 64 206 10.4 27.8 0.00 0.00 0.00 49 1013.0
20260503224546 64 197 12.2 22.6 0.00 0.00 0.00 50 1012.8
20260503223049 64 181 14.8 28.7 0.00 0.00 0.00 50 1012.8
20260503221553 64 208 13.0 25.2 0.00 0.00 0.00 49 1012.7
20260503220049 65 196 15.6 23.5 0.00 0.00 0.00 48 1012.9
20260503214550 64 185 13.9 25.2 0.00 0.00 0.00 47 1012.9
20260503213051 64 180 14.8 26.9 0.00 0.00 0.00 49 1013.3
20260503211559 63 196 14.8 26.1 0.00 0.00 0.00 49 1013.6
20260503210050 63 190 15.6 24.3 0.00 0.00 0.00 48 1013.9
20260503204552 63 196 16.5 21.7 0.00 0.00 0.00 48 1014.1
20260503203105 63 192 11.3 20.0 0.00 0.00 0.00 48 1015.1
20260503201548 63 227 13.0 20.0 0.00 0.00 0.00 47 1015.8
20260503200043 63 213 13.9 25.2 0.00 0.00 0.00 47 1015.7
20260503194554 63 233 14.8 26.9 0.00 0.00 0.00 48 1015.9
20260503193050 63 250 14.8 26.1 0.00 0.00 0.00 47 1015.8
20260503191547 63 218 15.6 27.8 0.00 0.00 0.00 47 1016.1
20260503190049 62 159 13.9 26.1 0.00 0.00 0.00 46 1016.4
20260503184550 62 229 12.2 21.7 0.00 0.00 0.00 50 1016.7
20260503183049 62 173 13.9 24.3 0.00 0.00 0.00 47 1017.1
20260503181600 62 178 11.3 20.9 0.00 0.00 0.00 50 1017.4
20260503180049 61 187 14.8 22.6 0.00 0.00 0.00 48 1017.9
20260503174551 61 185 11.3 21.7 0.00 0.00 0.00 49 1018.2
20260503173056 61 213 11.3 20.0 0.00 0.00 0.00 50 1018.5
20260503171547 60 232 14.8 20.9 0.00 0.00 0.00 50 1018.7
20260503081550 37 144 2.6 3.5 0.00 0.00 0.00 91 1019.5
20260503071559 37 144 2.6 3.5 0.00 0.00 0.00 90 1019.4